Location: Cheyres
(46.8153°N, 6.7877°E)
Time: 03:12:45
(UTC+00:00)

Cosmos 1833 Rocket - Pass Details

Date: 11 May 2021
Orbit: 831 x 841 km, 71.0° (Epoch: 18 June)

Event Time Altitude Azimuth Distance (km) Brightness Sun altitude
Rises 20:55:46 0° 331° (NNW) 3,406 7.6 -16.5°
Reaches altitude 10° 20:58:13 10° 329° (NNW) 2,468 6.4 -16.7°
Maximum altitude 21:03:50 68° 248° (WSW) 903 2.9 -17.3°
Enters shadow 21:07:03 26° 171° (S) 1,593 3.6 -17.6°
